EW9831 Weather Reports


time (UTC)temp
C
wind
direction
speed
KPH
gust
KPH
rain 1hr
cm
rain 24hr
cm
rain mn
cm
humidity
%
barometer
mb
20200220074105 5 120 11.3 11.3 0.00 0.00 0.00 87 1023.9
20200220073605 5 120 11.3 11.3 0.00 0.00 0.00 87 1023.9
20200220072605 5 120 11.3 11.3 0.00 0.00 0.00 87 1023.7
20200220071105 5 10 0.0 0.0 0.00 0.00 0.00 87 1023.7
20200220070605 5 10 0.0 0.0 0.00 0.00 0.00 87 1023.7
20200220070106 5 10 0.0 0.0 0.00 0.00 0.00 87 1023.6
20200220064605 5 10 0.0 0.0 0.00 0.00 0.00 87 1023.7
20200220064105 5 10 0.0 0.0 0.00 0.00 0.00 87 1023.6
20200220063605 5 10 0.0 0.0 0.00 0.00 0.00 87 1023.6
20200220063105 5 10 0.0 0.0 0.00 0.00 0.00 87 1023.6
20200220062605 5 10 0.0 0.0 0.00 0.00 0.00 87 1023.6
20200220061606 5 10 0.0 8.0 0.00 0.00 0.00 87 1023.6
20200220061105 5 10 8.0 8.0 0.00 0.00 0.00 87 1023.6
20200220054105 5 10 8.0 8.0 0.00 0.00 0.00 87 1023.7
20200220053605 5 10 8.0 8.0 0.00 0.00 0.00 87 1023.7
20200220052605 5 10 8.0 8.0 0.00 0.00 0.00 86 1023.6
20200220052105 6 10 8.0 8.0 0.00 0.00 0.00 86 1023.6
20200220051605 6 10 8.0 8.0 0.00 0.00 0.00 86 1023.6
20200220051105 6 130 4.8 4.8 0.00 0.00 0.00 86 1023.7
20200220050105 6 130 4.8 4.8 0.00 0.00 0.00 86 1023.7
20200220045605 6 130 4.8 4.8 0.00 0.00 0.00 86 1023.7
20200220044605 6 130 4.8 4.8 0.00 0.00 0.00 86 1023.8
20200220044105 6 130 4.8 4.8 0.00 0.00 0.00 86 1023.8
20200220042605 6 130 4.8 4.8 0.00 0.00 0.00 86 1023.8
20200220041605 6 130 4.8 4.8 0.00 0.00 0.00 86 1023.8
20200220040605 6 80 0.0 0.0 0.00 0.00 0.00 85 1023.7
20200220035105 6 80 0.0 0.0 0.00 0.00 0.00 85 1023.7
20200220034605 6 80 0.0 3.2 0.00 0.00 0.00 85 1023.9
20200220034105 6 80 3.2 3.2 0.00 0.00 0.00 85 1023.9
20200220033605 6 80 3.2 3.2 0.00 0.00 0.00 85 1023.9
20200220032105 6 80 3.2 3.2 0.00 0.00 0.00 85 1024.0
20200220031606 6 80 3.2 4.8 0.00 0.00 0.00 85 1024.1
20200220031105 6 30 4.8 4.8 0.00 0.00 0.00 85 1024.1
20200220025605 6 30 4.8 4.8 0.00 0.00 0.00 85 1024.2
20200220024606 6 30 4.8 4.8 0.00 0.00 0.00 85 1024.4
20200220024105 6 130 0.0 0.0 0.00 0.00 0.00 85 1024.4
20200220023605 7 130 0.0 0.0 0.00 0.00 0.00 85 1024.4
20200220021105 7 130 0.0 0.0 0.00 0.00 0.00 85 1024.4
20200220020605 7 130 0.0 0.0 0.00 0.00 0.00 84 1024.5
20200220020106 7 130 0.0 0.0 0.00 0.00 0.00 84 1024.5
20200220015605 7 130 0.0 0.0 0.00 0.00 0.00 84 1024.6
20200220014605 7 130 0.0 0.0 0.00 0.00 0.00 83 1024.6
20200220014105 7 130 0.0 0.0 0.00 0.00 0.00 83 1024.6
20200220013605 7 130 0.0 0.0 0.00 0.00 0.00 83 1024.7
20200220012606 7 130 0.0 0.0 0.00 0.00 0.00 82 1024.8
20200220012106 7 130 0.0 0.0 0.00 0.00 0.00 82 1024.8
20200220011606 7 130 0.0 3.2 0.00 0.00 0.00 82 1024.9
20200220010105 7 130 3.2 3.2 0.00 0.00 0.00 81 1024.9
20200220005605 7 130 3.2 3.2 0.00 0.00 0.00 81 1025.0
20200220005105 7 130 3.2 3.2 0.00 0.00 0.00 81 1025.0
20200220004605 7 130 3.2 3.2 0.00 0.00 0.00 81 1025.1
20200220004105 7 40 1.6 1.6 0.00 0.00 0.00 81 1025.1
20200220003605 7 40 1.6 1.6 0.00 0.00 0.00 80 1025.2
20200220002605 8 40 1.6 1.6 0.00 0.00 0.00 80 1025.3
20200220002106 8 40 1.6 1.6 0.00 0.00 0.00 80 1025.3
20200220001605 8 40 1.6 1.6 0.00 0.00 0.00 79 1025.3
20200220000605 8 20 0.0 0.0 0.00 0.00 0.00 79 1025.4
20200220000106 8 20 0.0 0.0 0.00 0.00 0.00 79 1025.4
20200219235606 8 20 0.0 0.0 0.00 0.00 0.00 79 1025.4
20200219234606 8 20 0.0 0.0 0.00 0.00 0.00 78 1025.5
20200219234105 8 20 0.0 0.0 0.00 0.00 0.00 78 1025.5
20200219233605 8 20 0.0 0.0 0.00 0.00 0.00 78 1025.5
20200219232605 8 20 0.0 0.0 0.00 0.00 0.00 78 1025.6
20200219232105 8 20 0.0 0.0 0.00 0.00 0.00 77 1025.7
20200219231605 8 20 0.0 0.0 0.00 0.00 0.00 77 1025.7
20200219230104 8 20 0.0 0.0 0.00 0.00 0.00 77 1025.7
20200219224605 9 20 0.0 0.0 0.00 0.00 0.00 76 1026.0
20200219224104 9 20 0.0 0.0 0.00 0.00 0.00 76 1026.0
20200219222603 9 20 0.0 0.0 0.00 0.00 0.00 75 1026.2
20200219221105 9 20 0.0 0.0 0.00 0.00 0.00 75 1026.3
20200219220604 10 20 0.0 0.0 0.00 0.00 0.00 74 1026.4
20200219220104 10 20 0.0 0.0 0.00 0.00 0.00 74 1026.4
20200219214604 10 20 0.0 0.0 0.00 0.00 0.00 73 1026.6
20200219214103 10 20 0.0 0.0 0.00 0.00 0.00 73 1026.6
20200219213605 10 20 0.0 0.0 0.00 0.00 0.00 72 1026.8
20200219213104 10 20 0.0 0.0 0.00 0.00 0.00 72 1026.8
20200219211104 10 20 4.8 4.8 0.00 0.00 0.00 71 1026.8
20200219205604 11 20 4.8 4.8 0.00 0.00 0.00 69 1026.9
20200219204604 11 20 4.8 4.8 0.00 0.00 0.00 69 1027.0
20200219204104 11 20 4.8 4.8 0.00 0.00 0.00 69 1027.0
20200219201104 11 350 3.2 3.2 0.00 0.00 0.00 68 1027.0
20200219195604 11 350 3.2 3.2 0.00 0.00 0.00 66 1027.1
20200219194604 12 350 3.2 8.0 0.00 0.00 0.00 66 1027.1
20200219194105 12 330 8.0 8.0 0.00 0.00 0.00 66 1027.1
20200219193604 12 330 8.0 8.0 0.00 0.00 0.00 65 1027.1
20200219192104 12 330 8.0 8.0 0.00 0.00 0.00 64 1027.1
20200219191604 12 330 8.0 8.0 0.00 0.00 0.00 64 1027.1
20200219191104 12 350 8.0 8.0 0.00 0.00 0.00 64 1027.1
20200219190604 13 350 8.0 8.0 0.00 0.00 0.00 63 1027.1
20200219190105 13 350 8.0 8.0 0.00 0.00 0.00 63 1027.1
20200219185604 13 350 8.0 8.0 0.00 0.00 0.00 62 1027.1
20200219183604 13 310 9.7 9.7 0.00 0.00 0.00 60 1027.1
20200219183104 13 310 9.7 9.7 0.00 0.00 0.00 60 1027.1
20200219182105 14 310 9.7 9.7 0.00 0.00 0.00 59 1027.1
20200219181604 14 310 9.7 11.3 0.00 0.00 0.00 58 1027.0
20200219181105 14 320 11.3 11.3 0.00 0.00 0.00 58 1027.0
20200219180105 14 320 11.3 11.3 0.00 0.00 0.00 57 1027.1
20200219175605 14 320 11.3 11.3 0.00 0.00 0.00 57 1027.1
20200219174604 15 320 11.3 11.3 0.00 0.00 0.00 55 1027.2
20200219173604 15 310 11.3 11.3 0.00 0.00 0.00 54 1027.2
20200219173104 15 310 11.3 11.3 0.00 0.00 0.00 54 1027.2
20200219172605 15 310 11.3 11.3 0.00 0.00 0.00 54 1027.2
20200219172106 15 310 11.3 11.3 0.00 0.00 0.00 53 1027.3
20200219171604 15 310 11.3 11.3 0.00 0.00 0.00 53 1027.3
20200219165604 15 320 8.0 8.0 0.00 0.00 0.00 54 1027.3
20200219165104 15 320 8.0 8.0 0.00 0.00 0.00 54 1027.3
20200219164605 15 320 8.0 9.7 0.00 0.00 0.00 54 1027.3
20200219164105 15 320 9.7 9.7 0.00 0.00 0.00 53 1027.4
20200219163104 15 320 9.7 9.7 0.00 0.00 0.00 53 1027.5
20200219162104 15 320 9.7 9.7 0.00 0.00 0.00 52 1027.5
20200219161105 15 330 12.9 12.9 0.00 0.00 0.00 52 1027.5
20200219160604 15 330 12.9 12.9 0.00 0.00 0.00 52 1027.5
20200219160104 16 330 12.9 12.9 0.00 0.00 0.00 52 1027.6
20200219155604 16 330 12.9 12.9 0.00 0.00 0.00 52 1027.6
20200219154605 16 330 12.9 16.1 0.00 0.00 0.00 52 1027.7
20200219154105 16 330 16.1 16.1 0.00 0.00 0.00 52 1027.8
20200219153604 16 330 16.1 16.1 0.00 0.00 0.00 52 1027.8
20200219153104 16 330 16.1 16.1 0.00 0.00 0.00 52 1027.9
20200219152105 16 330 16.1 16.1 0.00 0.00 0.00 51 1028.1
20200219151605 16 330 16.1 16.1 0.00 0.00 0.00 51 1028.1
20200219151105 16 310 14.5 14.5 0.00 0.00 0.00 42 1028.2
20200219150616 16 310 14.5 14.5 0.00 0.00 0.00 42 1028.2
20200219150105 16 310 14.5 14.5 0.00 0.00 0.00 42 1028.3
20200219145604 16 310 14.5 14.5 0.00 0.00 0.00 42 1028.3
20200219145104 16 310 14.5 14.5 0.00 0.00 0.00 41 1028.5
20200219144104 16 300 12.9 12.9 0.00 0.00 0.00 41 1028.6
20200219143604 16 300 12.9 12.9 0.00 0.00 0.00 41 1028.6
20200219143104 16 300 12.9 12.9 0.00 0.00 0.00 40 1028.7
20200219142604 16 300 12.9 12.9 0.00 0.00 0.00 40 1028.7
20200219141604 16 300 12.9 12.9 0.00 0.00 0.00 40 1028.9
20200219141104 16 160 9.7 9.7 0.00 0.00 0.00 39 1029.1
20200219140105 16 160 9.7 9.7 0.00 0.00 0.00 40 1029.2
20200219135605 16 160 9.7 9.7 0.00 0.00 0.00 40 1029.2
20200219135104 17 160 9.7 9.7 0.00 0.00 0.00 42 1029.4
20200219134104 17 140 8.0 8.0 0.00 0.00 0.00 41 1029.5
20200219132604 17 140 8.0 8.0 0.00 0.00 0.00 43 1029.7
20200219130605 17 110 9.7 9.7 0.00 0.00 0.00 43 1030.2
20200219130105 17 110 9.7 9.7 0.00 0.00 0.00 43 1030.4
20200219125605 17 110 9.7 9.7 0.00 0.00 0.00 43 1030.4
20200219122605 16 100 8.0 8.0 0.00 0.00 0.00 49 1031.2
20200219122105 15 100 8.0 8.0 0.00 0.00 0.00 50 1031.4
20200219120105 15 60 8.0 8.0 0.00 0.00 0.00 52 1031.8
20200219114605 14 60 8.0 12.9 0.00 0.00 0.00 54 1031.8
20200219112605 13 110 12.9 12.9 0.00 0.00 0.00 56 1031.9
20200219110105 12 100 11.3 41.8 0.00 0.00 0.00 58 1032.1
20200219104605 12 100 11.3 41.8 0.00 0.00 0.00 59 1032.2
20200219104104 12 90 9.7 9.7 0.00 0.00 0.00 60 1032.3
20200219103605 12 90 9.7 9.7 0.00 0.00 0.00 60 1032.3
20200219103105 11 90 9.7 9.7 0.00 0.00 0.00 60 1032.3
20200219102104 11 90 9.7 9.7 0.00 0.00 0.00 61 1032.4
20200219101605 11 90 9.7 9.7 0.00 0.00 0.00 61 1032.4
20200219101105 11 90 8.0 8.0 0.00 0.00 0.00 63 1032.4
20200219100604 11 90 8.0 8.0 0.00 0.00 0.00 63 1032.4
20200219100105 11 90 8.0 8.0 0.00 0.00 0.00 65 1032.5
20200219095605 11 90 8.0 8.0 0.00 0.00 0.00 65 1032.5
20200219095105 10 90 8.0 8.0 0.00 0.00 0.00 65 1032.3
20200219094604 10 90 8.0 8.0 0.00 0.00 0.00 65 1032.3
20200219094105 10 50 4.8 4.8 0.00 0.00 0.00 67 1032.4
20200219093604 10 50 4.8 4.8 0.00 0.00 0.00 67 1032.4
20200219093104 10 50 4.8 4.8 0.00 0.00 0.00 69 1032.5
20200219092105 10 50 4.8 4.8 0.00 0.00 0.00 72 1032.5
20200219091606 10 50 4.8 4.8 0.00 0.00 0.00 72 1032.5
20200219091105 9 50 3.2 3.2 0.00 0.00 0.00 74 1032.5
20200219090605 9 50 3.2 3.2 0.00 0.00 0.00 74 1032.5
20200219090104 8 50 3.2 3.2 0.00 0.00 0.00 75 1032.4
20200219085105 7 50 3.2 3.2 0.00 0.00 0.00 77 1032.3
20200219084105 7 50 8.0 8.0 0.00 0.00 0.00 78 1032.2
20200219083105 6 50 8.0 8.0 0.00 0.00 0.00 78 1032.2
20200219082605 6 50 8.0 8.0 0.00 0.00 0.00 78 1032.2
20200219082105 6 50 8.0 8.0 0.00 0.00 0.00 77 1032.1
20200219081605 6 50 8.0 8.0 0.00 0.00 0.00 77 1032.1
20200219081105 6 50 4.8 4.8 0.00 0.00 0.00 75 1032.0
20200219080604 6 50 4.8 4.8 0.00 0.00 0.00 75 1032.0
20200219080105 6 50 4.8 4.8 0.00 0.00 0.00 75 1032.0
20200219075604 6 50 4.8 4.8 0.00 0.00 0.00 75 1032.0